Location: Brantley
(31.5822°N, 86.2569°W)
Time: 22:37:55
(UTC+00:00)

A-11 Canister half - Pass Details

Date: 18 February 2026
Orbit: 1525 x 1683 km, 47.3° (Epoch: 10 March)

Event Time Altitude Azimuth Distance (km) Brightness Sun altitude
Rises 03:31:02 0° 308° (NW) 4,674 12.1 -50.6°
Reaches altitude 10° 03:34:12 10° 313° (NW) 3,694 11.4 -51.2°
Enters shadow 03:37:49 26° 324° (NW) 2,662 10.4 -51.9°
